Atiramapattinam, India

4:45 PM IST on December 19, 2014 (GMT +0530)
Tiruchirappalli | Change Station
CLOSE
Current Station
Airport
Location: Triuchirapalli,
Elevation: 289 ft
Nearby Weather Stations

Elev 289 ft 10.77 °N, 78.71 °E | Updated 35 minutes ago

Overcast
Overcast
77 °F
Feels Like 77 °F
N
7
Wind Variable Wind from ENE

Today
High -- | Low -- °F
--% Chance of Precip.
Yesterday
High -- | Low -- °F
Precip. -- in
6:23 AM 5:55 PM
Waning Crescent, 8% visible
Pressure 29.92 in
Visibility 1.4 miles
Clouds Few 1000 ft
Scattered Clouds 1600 ft
Overcast 8000 ft
Dew Point 73 °F
Humidity 89%
Rainfall 0.00 in
Snow Depth Not available.
UV 1 out of 12
Pollen Not available.
Air Quality Not available.
Flu Activity Not available.
METAR VOTR 191040Z 06006KT 2200 BR FEW010 SCT016 OVC080 25/23 Q1013 NOSIG

More Conditions Fewer Conditions

Pressure 29.92 in
Visibility 1.4 miles
Clouds Few 1000 ft
Scattered Clouds 1600 ft
Overcast 8000 ft
Dew Point 73 °F
Humidity 89%
Rainfall 0.00 in
Snow Depth Not available.
UV 1 out of 12
Pollen Not available.
Air Quality Not available.
Flu Activity Not available.
METAR VOTR 191040Z 06006KT 2200 BR FEW010 SCT016 OVC080 25/23 Q1013 NOSIG

More Conditions Fewer Conditions

10-Day Weather Forecast

Almanac

Astronomy

Dec. 19, 2014 Rise Set
Actual Time
Civil Twilight
Nautical Twilight
Astronomical Twilight
Moon
Length of Visible Light
Length of Day
Tomorrow will be .
, % of the Moon is Illuminated

Today's Extremes

Country Highs Country Lows

Community

WunderPhotos

Upload Photos

1,778,965 photos uploaded!

WunderBlogs® & News

Nearby

Air Quality

  Air Quality AQ Index Pollutant
Not available.

Snow Depth

Station Depth Elevation

Earthquake Activity

City Distance Mag. Time & Date
Minimum magnitude displayed is 2.5.

Coastal Water Temperatures

Place Temperature

Nearby Weather Stations